Regional Weather Roundup
Issued by NWS

Home | Current Version | Previous Version | Graphics & Text | Print | Product List | Glossary On
Versions: 1 2 3 4 5 6 7 8 9 10 11 12 13 14 15 16 17 18 19 20 21 22 23 24 25 26 27 28 29 30 31 32 33 34 35 36 37 38 39 40 41 42 43 44 45 46 47 48 49 50
000
ASUS43 KBIS 230302
RWRND

NORTH DAKOTA REGIONAL WEATHER ROUNDUP
NATIONAL WEATHER SERVICE BISMARCK ND
1000 PM CDT TUE MAY 22 2018

NOTE: "FAIR" INDICATES FEW OR NO CLOUDS BELOW 12,000 FEET WITH NO
SIGNIFICANT WEATHER AND/OR OBSTRUCTIONS TO VISIBILITY.


NDZ001>003-009>011-017-230400-
NORTHWEST NORTH DAKOTA

CITY           SKY/WX    TMP DP  RH WIND       PRES   REMARKS
WILLISTON      MOCLDY    68  50  52 NE13      29.93R
MINOT          CLOUDY    71  51  49 N6        29.93R
MINOT AFB      CLOUDY    72  52  49 NE8       29.91R
$$

NDZ018>021-031>035-040>046-230400-
SOUTHWEST NORTH DAKOTA

CITY           SKY/WX    TMP DP  RH WIND       PRES   REMARKS
BISMARCK       TSTM      66  60  81 NW8       29.96R
DICKINSON      CLOUDY    66  55  67 S12       29.91R
GARRISON         N/A     69  54  58 S10       29.94R
HETTINGER ARPT CLOUDY    63  50  62 E17       29.95R
$$

NDZ004>008-012>016-024-026-027-054-230400-
NORTHEAST NORTH DAKOTA

CITY           SKY/WX    TMP DP  RH WIND       PRES   REMARKS
GRAND FORKS    FAIR      70  55  59 SE8       29.95R
GRND FRKS AFB  FAIR      69  53  55 SE7       29.96R
DEVILS LAKE    FAIR      70  54  56 E8        29.96R
$$

NDZ022-023-025-028>030-036>039-047>053-230400-
SOUTHEAST NORTH DAKOTA

CITY           SKY/WX    TMP DP  RH WIND       PRES   REMARKS
FARGO          FAIR      73  56  54 E13       29.96R
JAMESTOWN      CLOUDY    70  57  63 E8        29.95R
$$





USA.gov is the U.S. government's official web portal to all federal, state and local government web resources and services.